LFRS

Nantes/Atlantique

Airport
ICAO code
LFRS
Summary
ICAO Region
EUR
ICAO Territory
Location

Nantes, Pays de la Loire,

Coordinates
47° 9' 12" N , 1° 36' 39" W
KCC
Metar
Observation
LFRS 010230Z AUTO 03005KT 340V060 9999 BKN026 06/04 Q1025 TEMPO BKN005
Station
Nantes
Date/Time
2022-12-01 02:30:00
Wind direction
30°
Wind speed
05 kts
Lowest cloud amount
broken clouds
Temperature
6°C
Dew point
4°C
Humidity
86%
QNH
1025 hPa
Weather condition
n/a

Description

International airport serving western France and the city of Nantes.

Climatology

Temperate Marine climate/Oceanic climate (Köppen climate classification Cfb). Moderately cool summer and comparatively warm winter with a temperature range of only 14°C. Prevailing south-westerly winds from the Atlantic Ocean.

Runways

Designator Length Width Surface Rops
3/21 2900 45 ASP Yes/Yes

Airport map

Aerial View

SKYbrary Partners:

Safety knowledge contributed by: